This demonstration page uses our WeatherBlox Daily Observations layout. Learn more.

Left ArrowRight Arrow

Hourly Observations for September 11, 2016

Temp ( °F °C ) Dew Point ( °F °C ) Humidity (%) Winds ( mph kmh ) Pressure ( in mb ) Visibility ( mi km ) Precip ( " mm )
12:51 am 00:51 Clear 73 22.8 57 13.9 57 57 ESE 6 9 30.01 1016 10 16.0934 0 0
1:51 am 01:51 Clear 72 22.2 58 14.4 61 61 SSE 6 9 30.01 1016 10 16.0934 0 0
2:51 am 02:51 Clear 72 22.2 57 13.9 59 59 SE 7 11 30 1016 10 16.0934 0 0
3:51 am 03:51 Clear 73 22.8 57 13.9 57 57 E 8 13 29.98 1015 10 16.0934 0 0
4:51 am 04:51 Clear 71 21.7 57 13.9 61 61 ESE 9 15 30 1016 10 16.0934 0 0
5:51 am 05:51 Clear 71 21.7 57 13.9 61 61 SE 10 17 30.03 1017 10 16.0934 0 0
6:51 am 06:51 Sunny 72 22.2 57 13.9 59 59 SSE 13 20 30.04 1017 10 16.0934 0 0
7:51 am 07:51 Sunny 74 23.3 59 15 60 60 SSE 10 17 30.05 1018 10 16.0934 0 0
8:51 am 08:51 Sunny 77 25 57 13.9 50 50 SE 8 13 30.05 1018 10 16.0934 0 0
9:51 am 09:51 Sunny 81 27.2 57 13.9 44 44 VRB 6 9 30.04 1017 10 16.0934 0 0
10:51 am 10:51 Sunny 85 29.4 58 14.4 40 40 ESE 7 11 30.01 1016 10 16.0934 0 0
11:51 am 11:51 Sunny 87 30.6 57 13.9 36 36 S 7 11 29.99 1016 10 16.0934 0 0
12:51 pm 12:51 Sunny 87 30.6 57 13.9 36 36 VRB 3 6 29.96 1015 10 16.0934 0 0
1:51 pm 13:51 Sunny 86 30 57 13.9 37 37 SW 3 6 29.93 1013 10 16.0934 0 0
2:51 pm 14:51 Partly Cloudy 85 29.4 57 13.9 39 39 Calm 29.9 1012 10 16.0934 0 0
3:51 pm 15:51 Sunny 87 30.6 58 14.4 37 37 SW 5 7 29.86 1011 10 16.0934 0 0
4:51 pm 16:51 Sunny 89 31.7 54 12.2 30 30 Calm 29.85 1011 10 16.0934 0 0
5:51 pm 17:51 Sunny 88 31.1 53 11.7 30 30 S 3 6 29.84 1011 10 16.0934 0 0
6:51 pm 18:51 Clear 83 28.3 55 12.8 38 38 ESE 5 7 29.85 1011 10 16.0934 0 0
7:51 pm 19:51 Mostly Clear 83 28.3 51 10.6 33 33 NE 9 15 29.87 1011 10 16.0934 0 0
8:51 pm 20:51 Clear 80 26.7 54 12.2 41 41 E 7 11 29.87 1012 10 16.0934 0 0
9:51 pm 21:51 Clear 76 24.4 56 13.3 50 50 SSW 8 13 29.88 1012 10 16.0934 0 0
10:51 pm 22:51 Clear 73 22.8 57 13.9 57 57 NE 3 6 29.88 1012 10 16.0934 0 0
11:51 pm 23:51 Clear 73 22.8 56 13.3 55 55 E 6 9 29.88 1012 10 16.0934 0 0

Powered by AerisWeather